Flag for India Weather past 2 weeks in New Okhla Industrial Development Authority, Uttar Pradesh, India

Now
86 °F

Scattered clouds.


Feels Like: 86 °F
Forecast: 66 / 90 °F
Wind: 3 mph from Northeast

Location: New Delhi Palam Airport

Current Time: Mar 31, 2015 at 3:36:11 PM

Latest Report: Mar 31, 2015 at 2:30 PM


Visibility: 2 mi

Pressure: 29.83 "Hg

Humidity: 43%

Dew point: 61 °F

Location of New Okhla Industrial Development AuthorityLocation

Historic Weather in New Okhla Industrial Development Authority — Graph

°F

New Okhla Industrial Development Authority temperature yesterday

Maximum temperature yesterday: 81 °F (at 2:00 PM)
Minimum temperature yesterday: 68 °F (at 12:00 AM)
Average temperature yesterday: 74 °F

Past Weeks' High & Low Weather Summary

 TemperatureHumidityPressure
High97 °F (Mar 26, 3:00 PM)100% (Mar 24, 5:00 AM)30.09 "Hg (Mar 24, 5:00 AM)
Low55 °F (Mar 18, 6:00 AM)20% (Mar 28, 4:00 PM)29.74 "Hg (Mar 29, 5:00 PM)
Average77 °F55%29.92 "Hg
* Reported Mar 16 1:30 PM — Mar 31 2:00 PM, New Okhla Industrial Development Authority, Weather by CustomWeather, © 2015

Note: Actual official high and low records may vary slightly from our data, if they occured in-between our weather recording intervals... More about our weather records

Advertising

New Okhla Industrial Development Authority weather history for previous 24 hours

 ConditionsComfort  
Time TempWeatherWind HumidityBarometerVisibility
2:00 PM
Tue, Mar 31
86 °FScattered clouds.5 mph43%29.86 "Hg2 mi
1:30 PM86 °FScattered clouds.2 mph43%29.86 "Hg2 mi
1:00 PM84 °FHaze.5 mph45%29.89 "Hg2 mi
12:30 PM84 °FHaze.7 mph45%29.92 "Hg2 mi
12:00 PM84 °FHaze.5 mph45%29.92 "Hg2 mi
11:30 AM82 °FHaze.6 mph48%29.92 "Hg2 mi
10:30 AM77 °FHaze.5 mph57%29.95 "Hg2 mi
10:00 AM77 °FHaze.7 mph57%29.92 "Hg1 mi
9:30 AM75 °FHaze.9 mph61%29.92 "Hg1 mi
9:00 AM73 °FHaze.8 mph65%29.92 "Hg1 mi
8:30 AM73 °FHaze.9 mph65%29.89 "Hg1 mi
7:30 AM68 °FFog.8 mph78%29.86 "Hg1 mi
7:00 AM68 °FFog.8 mph78%29.86 "Hg1 mi
6:30 AM68 °FFog.7 mph78%29.86 "Hg1 mi
5:30 AM68 °FFog.7 mph83%29.86 "Hg2 mi
5:00 AM68 °FFog.7 mph83%29.86 "Hg2 mi
4:30 AM68 °FFog.5 mph83%29.86 "Hg2 mi
4:00 AM68 °FFog.7 mph83%29.86 "Hg2 mi
3:30 AM68 °FFog.7 mph83%29.86 "Hg2 mi
3:00 AM68 °FFog.7 mph83%29.86 "Hg2 mi
2:30 AM70 °FFog.8 mph78%29.86 "Hg2 mi
2:00 AM70 °FFog.8 mph78%29.86 "Hg2 mi
1:30 AM70 °FFog.12 mph78%29.86 "Hg2 mi
1:00 AM70 °FPassing clouds.12 mph73%29.86 "Hg2 mi
12:30 AM70 °FPassing clouds.12 mph73%29.86 "Hg2 mi
12:00 AM70 °FPassing clouds.10 mph73%29.86 "Hg2 mi
11:30 PM
Mon, Mar 30
72 °FPartly cloudy.10 mph69%29.89 "Hg2 mi
11:00 PM72 °FPartly cloudy.12 mph73%29.89 "Hg2 mi
10:30 PM73 °FPartly cloudy.10 mph69%29.89 "Hg2 mi
10:00 PM73 °FPartly cloudy.10 mph65%29.89 "Hg2 mi
9:30 PM73 °FPartly cloudy.12 mph65%29.86 "Hg2 mi
9:00 PM73 °FPartly cloudy.12 mph65%29.86 "Hg2 mi
8:30 PM73 °FPartly cloudy.10 mph65%29.83 "Hg2 mi
8:00 PM75 °FPartly cloudy.10 mph61%29.83 "Hg2 mi
7:30 PM75 °FPartly cloudy.9 mph61%29.83 "Hg2 mi
7:00 PM77 °FBroken clouds.8 mph57%29.83 "Hg2 mi
6:30 PM77 °FBroken clouds.10 mph57%29.80 "Hg2 mi
6:00 PM77 °FBroken clouds.10 mph57%29.80 "Hg2 mi
5:30 PM79 °FBroken clouds.12 mph58%29.80 "Hg2 mi
5:00 PM79 °FBroken clouds.12 mph54%29.80 "Hg2 mi
4:30 PM79 °FBroken clouds.12 mph51%29.80 "Hg2 mi
4:00 PM81 °FBroken clouds.9 mph51%29.80 "Hg2 mi
3:30 PM81 °FBroken clouds.9 mph51%29.80 "Hg2 mi
Weather by CustomWeather, © 2015

See weather overviewHow to use our weather pages